Theta_e
325 325 325 325 324 324 323 323 323 322 322 322 322 321 321 322 322 324 317 326 329 345 351 336 330 331 335 335 334 334 319 315 315 315 317 323 321 325 326 323 325 330 334 344 347
324 324 324 324 325 324 323 323 323 322 322 322 321 321 321 322 323 320 334 346 346 347 335 329 323 326 327 325 327 325 319 315 320 319 317 319 320 322 321 321 321 324 340 347 345
324 324 324 324 324 324 323 323 323 323 322 321 321 321 321 324 322 321 342 347 346 345 331 329 325 323 321 323 325 324 317 320 320 319 319 317 318 321 318 317 320 319 330 344 344
323 323 323 323 323 323 323 322 322 321 321 321 321 321 321 327 313 331 346 346 349 335 330 324 322 319 317 318 324 319 322 319 319 318 317 316 319 316 317 320 322 324 324 344 344
323 323 323 323 323 322 322 321 321 321 321 321 321 321 323 321 318 338 352 344 333 333 324 322 319 319 316 319 320 318 318 318 318 318 317 318 316 316 319 323 326 330 329 341 344
322 322 322 322 322 321 321 321 321 321 321 321 321 321 326 314 328 335 330 328 329 326 324 322 319 321 321 320 318 319 316 316 317 317 317 316 316 318 321 325 326 331 332 338 343
321 321 321 321 321 321 320 320 322 323 322 321 321 327 322 317 331 332 332 331 329 326 321 323 324 323 324 318 320 317 313 316 316 316 316 318 314 316 323 326 326 331 336 338 341
320 320 320 320 320 320 319 319 323 322 322 323 324 328 317 326 333 328 329 326 329 328 327 326 332 328 322 321 318 315 315 311 315 315 316 317 312 318 323 327 327 330 336 340 343
319 319 319 319 319 318 317 318 325 324 324 325 329 330 315 324 324 327 327 324 326 327 327 326 325 321 319 314 313 313 309 309 311 315 314 314 313 319 324 326 328 331 334 337 343
318 318 318 318 318 317 316 317 324 323 327 330 329 322 322 319 322 326 328 326 323 323 321 321 320 316 316 314 307 309 309 310 309 314 314 313 314 319 320 322 324 329 333 337 339
317 317 317 318 317 315 317 325 322 322 321 318 319 320 320 323 324 321 326 323 320 318 314 317 313 311 313 314 313 311 310 309 311 314 312 312 313 315 319 319 320 324 327 331 334
316 316 317 317 315 315 320 320 318 319 316 319 318 319 321 321 316 319 324 318 315 312 314 312 310 315 314 313 311 311 310 310 313 314 313 313 313 318 318 318 320 321 325 327 330
316 316 316 315 314 319 322 319 325 324 316 316 318 318 318 320 316 316 321 319 314 312 312 311 314 314 313 312 311 312 310 311 310 313 315 313 311 315 319 320 322 323 325 327 329
315 315 315 313 317 324 322 324 327 324 313 311 313 316 318 319 314 321 322 318 314 312 312 312 315 312 312 310 312 310 313 311 310 309 306 314 304 314 317 317 319 321 323 325 327
314 315 314 311 325 323 322 327 326 322 304 314 314 322 320 316 317 316 322 318 313 312 313 310 311 311 310 311 312 311 313 311 311 310 309 309 306 312 317 314 318 321 323 326 327
313 313 313 323 328 325 328 327 323 309 302 310 314 312 313 315 315 317 316 319 318 313 313 312 315 313 313 313 313 314 312 313 313 311 304 309 308 308 312 314 318 320 322 324 327
312 311 313 325 325 328 328 323 311 305 314 310 310 313 312 311 312 313 312 311 310 307 308 311 311 314 314 311 314 314 311 304 303 303 304 311 307 308 315 317 318 319 320 323 326
310 310 318 326 329 328 325 315 305 310 310 313 312 313 310 313 313 313 312 310 314 312 309 307 305 312 314 312 310 311 309 303 298 299 303 310 303 311 318 320 320 321 322 324 326
309 322 323 328 329 328 318 308 308 311 313 310 312 309 310 311 311 312 311 311 313 314 308 308 307 314 313 314 313 311 307 312 305 306 302 306 310 315 317 316 318 319 321 323 327
317 318 318 328 328 323 312 304 311 314 313 312 308 311 308 311 309 311 311 313 311 314 316 312 306 313 313 314 314 312 314 304 308 299 298 303 304 306 313 314 316 317 319 322 327
319 313 325 328 326 316 307 309 311 314 314 311 310 310 310 310 311 311 311 313 313 314 316 314 311 310 312 311 309 311 309 310 309 305 300 299 304 313 312 314 315 317 320 324 326
318 308 325 325 312 313 309 310 303 312 315 313 313 312 311 311 310 310 309 312 316 316 311 315 311 307 310 314 314 313 309 310 304 303 306 304 302 316 315 315 316 317 322 325 327
313 312 322 319 306 308 312 310 311 311 312 312 310 312 313 311 308 311 311 315 315 314 313 315 309 303 306 311 313 309 311 311 310 309 303 300 303 315 315 315 317 321 324 326 327
314 308 316 316 314 312 311 310 309 313 312 313 312 312 311 310 312 310 310 313 314 314 319 314 309 306 302 306 309 307 309 310 308 303 304 304 306 310 312 312 318 323 324 325 327
316 312 315 312 312 312 311 311 308 308 312 313 311 311 310 308 309 309 312 312 312 311 311 312 306 308 308 308 308 306 306 306 305 307 303 305 304 309 312 318 321 323 324 324 325
309 312 316 310 313 313 305 309 308 308 310 310 309 312 311 309 311 309 311 312 311 313 311 314 307 308 304 306 306 304 305 306 306 306 305 305 305 314 321 322 321 322 322 322 324
315 315 309 306 309 307 308 310 309 311 312 313 312 311 310 311 314 316 316 315 314 312 311 311 308 305 300 305 304 300 304 305 306 307 306 303 311 318 318 319 320 321 322 323 324
Wind_Speed
19 18 18 18 17 16 15 14 14 13 12 11 10 9 8 8 11 9 12 1 5 17 7 11 10 10 11 13 8 11 9 8 2 1 9 7 10 7 8 7 8 5 12 14 22
19 19 19 19 18 17 15 14 13 12 11 10 9 8 8 8 12 14 6 10 13 15 11 12 11 8 12 9 6 11 12 9 11 8 8 10 9 12 6 10 7 9 7 20 21
20 20 21 21 20 18 17 15 13 11 11 10 9 8 8 10 10 5 7 12 12 15 15 12 7 10 12 9 9 10 9 11 6 8 8 10 11 9 9 5 14 9 9 18 19
22 22 22 22 21 20 18 17 14 13 11 11 9 8 6 11 1 9 9 12 13 17 15 12 11 12 12 8 4 8 10 4 7 8 10 11 10 7 4 10 7 6 1 17 17
23 23 23 22 22 21 19 17 14 11 9 9 9 7 7 11 7 9 12 11 15 17 14 13 11 12 13 6 3 11 8 6 8 8 6 4 2 5 10 7 8 8 2 15 16
24 23 23 23 22 21 19 16 13 9 6 7 8 7 9 7 6 12 14 16 15 15 14 11 9 8 13 7 8 11 8 9 4 4 2 7 7 2 8 7 9 8 4 9 15
25 25 24 23 22 22 20 17 14 4 6 8 10 7 11 9 7 11 15 13 11 11 9 10 10 10 3 10 2 9 12 8 5 2 5 7 9 10 4 4 9 9 9 5 6
26 26 25 23 22 21 19 16 10 1 6 8 9 11 4 3 7 10 8 7 9 8 11 5 8 12 8 6 11 13 13 11 10 5 6 12 11 8 5 9 10 9 8 7 5
27 27 27 25 23 19 17 13 6 3 3 8 9 10 9 4 10 12 9 9 8 7 6 2 11 14 6 13 13 8 8 2 9 1 4 6 7 10 6 10 11 12 10 8 10
27 28 28 26 24 20 16 8 3 4 8 10 10 9 11 11 8 8 10 5 7 8 9 10 9 11 12 13 7 6 6 8 4 7 6 6 6 8 5 9 10 11 12 12 12
25 27 28 27 27 21 14 6 8 9 12 9 5 3 11 9 7 10 11 9 8 8 13 11 12 13 3 8 7 6 6 7 2 3 9 3 2 4 2 5 8 9 10 12 12
25 26 28 28 27 24 9 6 8 7 8 5 4 5 3 3 9 11 13 12 8 14 4 8 14 10 3 5 6 8 9 7 3 3 8 8 9 9 3 4 5 7 10 10 11
25 26 28 28 28 13 6 7 7 6 9 8 6 9 13 11 9 13 16 13 10 7 10 14 14 3 7 6 9 9 9 8 10 6 14 11 16 14 8 7 7 8 7 12 10
26 26 26 33 7 7 1 7 8 2 8 12 10 7 8 10 7 14 15 5 5 6 3 9 9 4 6 2 9 7 5 6 11 12 12 6 8 16 15 10 5 6 7 11 9
27 26 25 10 13 5 8 9 7 6 8 14 12 11 14 12 15 11 10 8 12 6 10 5 8 8 9 5 6 11 10 11 13 14 15 16 8 14 10 9 9 8 7 9 9
28 26 25 4 9 6 9 9 7 9 4 9 9 12 14 13 10 12 10 10 6 6 8 3 2 6 5 1 6 8 13 15 16 13 14 17 4 8 10 7 11 10 6 6 6
30 28 16 9 6 10 9 8 9 10 4 10 12 12 17 11 12 11 16 14 11 10 15 9 11 6 7 11 11 12 13 10 7 12 1 9 5 6 9 5 6 6 3 4 5
32 31 5 10 9 9 9 10 10 6 2 4 2 9 12 9 10 11 13 15 11 9 11 9 13 12 5 5 10 10 9 9 10 11 10 11 6 6 9 8 5 3 7 8 8
34 8 7 6 3 7 9 10 11 3 6 5 9 12 15 5 9 11 14 14 7 8 11 8 8 8 3 1 5 2 10 10 12 17 11 13 7 11 11 5 5 3 9 6 7
9 10 8 3 5 8 9 14 7 6 6 7 13 11 13 14 12 11 12 4 4 6 7 5 9 14 11 6 10 11 10 10 11 6 11 7 5 5 12 6 5 7 11 11 9
7 7 8 4 6 8 11 5 2 4 7 10 11 10 12 8 7 12 7 9 3 6 9 13 7 5 7 13 13 9 11 7 8 8 10 10 2 6 2 6 6 9 11 13 12
7 7 5 4 10 8 10 4 4 9 8 10 9 12 8 7 9 13 5 2 5 10 9 1 8 11 13 10 3 11 15 14 9 10 8 10 11 11 6 5 7 9 7 8 12
7 8 4 7 9 9 7 8 8 7 9 7 9 10 7 7 8 7 4 10 3 8 7 2 8 12 15 17 12 6 10 9 9 10 13 12 9 1 1 8 7 10 9 11 12
7 5 7 7 8 10 9 8 10 5 10 7 9 1 9 12 6 5 7 8 4 2 8 4 11 13 14 18 14 8 10 11 13 11 14 14 16 15 14 16 11 11 9 10 12
6 1 7 3 3 7 5 8 9 9 11 5 9 12 12 12 12 11 11 11 8 8 6 7 12 13 15 16 17 18 19 19 19 18 18 19 21 18 14 9 9 9 5 10 12
6 5 4 10 6 9 5 10 11 10 2 10 11 12 9 11 11 11 12 9 10 14 9 10 9 10 16 18 18 21 22 21 21 20 21 21 19 8 9 11 12 11 10 11 11
6 6 6 3 9 10 10 9 7 8 3 10 7 8 10 7 7 10 8 9 4 7 8 9 9 11 15 14 15 14 18 19 16 16 15 14 10 13 12 12 11 10 10 10 11
Wind_Direction
344 339 336 333 331 328 323 318 312 306 299 298 299 295 293 295 289 220 238 71 163 166 222 199 215 222 236 254 241 272 256 257 353 61 347 1 337 359 339 300 99 54 38 132 142
341 338 335 332 333 329 323 315 307 302 294 289 287 283 287 293 255 243 140 117 147 169 206 195 208 211 229 238 232 256 293 25 22 335 309 326 321 309 314 345 54 63 97 122 154
340 338 335 333 334 331 325 318 308 298 287 277 269 271 279 278 257 109 147 140 173 193 222 218 248 233 250 242 230 281 299 6 344 24 310 308 288 342 321 305 24 349 110 145 166
340 338 335 334 333 331 328 321 312 297 280 265 256 255 268 246 335 92 163 162 188 210 233 220 237 233 248 238 223 271 282 296 309 320 295 294 332 287 19 24 348 346 335 156 176
339 337 335 334 332 331 327 323 313 293 270 248 236 226 227 213 69 79 145 157 178 214 212 212 226 243 264 293 304 253 285 324 296 300 325 302 51 54 47 356 25 26 42 153 181
337 336 335 334 332 331 329 328 317 292 246 217 204 190 245 238 111 136 135 160 180 206 207 226 246 264 294 295 285 338 303 292 270 115 151 281 105 278 35 346 40 59 78 165 178
337 335 334 334 331 331 330 329 322 276 205 195 191 230 255 72 139 140 156 176 184 222 209 227 261 237 319 250 294 276 263 195 193 80 126 287 155 53 1 9 34 32 62 64 176
337 333 332 332 332 331 327 325 317 216 181 194 197 244 52 120 150 171 197 182 181 224 271 202 248 271 278 316 250 242 226 193 127 280 116 250 100 57 346 52 49 44 79 95 101
337 333 330 330 331 328 320 317 284 211 210 183 220 234 133 135 194 191 206 181 187 199 206 221 248 249 207 237 227 203 248 357 129 137 308 269 45 66 16 60 67 69 59 65 102
336 332 329 328 328 326 312 277 338 224 213 217 263 254 158 199 149 175 193 237 195 166 180 221 228 231 220 236 329 43 316 154 272 136 230 232 97 101 359 83 79 68 74 69 67
334 329 326 326 326 323 309 197 205 191 217 309 140 338 130 129 159 201 184 211 210 220 235 197 234 223 56 14 347 326 289 285 152 77 278 334 325 59 29 42 89 83 82 84 72
331 327 327 325 323 312 280 4 37 339 282 187 223 251 191 234 190 177 185 211 204 233 195 200 234 51 317 293 269 255 265 240 191 115 276 235 246 161 191 82 68 91 90 69 78
331 330 327 323 319 290 18 23 328 310 253 147 191 193 177 204 206 167 198 224 226 228 219 268 68 92 242 199 246 215 306 17 317 311 251 243 250 148 166 156 124 104 92 85 69
331 329 326 323 299 357 134 347 313 317 265 141 178 157 182 226 213 155 210 246 218 285 197 252 98 259 254 284 305 307 67 294 283 287 294 177 280 181 160 157 147 95 44 73 63
328 327 323 327 314 311 346 318 317 235 266 150 130 127 163 219 125 189 195 215 261 177 246 112 190 214 253 33 323 328 336 298 286 277 274 257 235 100 157 182 148 104 58 51 49
325 324 328 201 223 319 312 310 246 232 228 149 144 184 185 210 189 138 191 236 307 231 233 333 359 262 340 205 272 313 277 261 246 251 244 227 270 163 159 183 153 106 74 37 39
324 317 313 304 326 335 312 255 236 253 134 144 188 182 202 177 175 190 198 201 222 211 213 176 209 133 261 245 194 246 292 287 235 211 295 98 247 291 93 89 53 68 19 14 4
322 311 211 263 297 291 285 255 258 331 144 41 256 204 225 170 220 203 226 225 217 282 284 234 180 183 155 295 338 308 318 295 302 301 324 151 235 87 63 116 133 234 14 311 14
313 264 235 191 280 279 267 240 244 313 25 253 185 236 212 183 273 214 225 235 215 208 267 310 220 130 172 233 279 76 257 18 298 257 248 260 102 167 154 187 186 306 322 349 356
309 281 252 134 269 258 253 259 311 327 309 259 257 213 237 192 198 215 196 229 196 267 273 332 281 193 145 240 210 274 341 271 223 286 281 295 297 284 160 193 31 336 329 323 349
260 260 102 222 245 240 246 261 229 153 281 253 257 269 254 267 227 252 221 121 246 178 277 286 223 261 132 222 250 185 232 206 302 301 299 296 67 86 37 347 354 308 318 341 327
288 252 104 247 240 228 258 222 2 257 211 258 270 291 265 244 252 254 254 241 94 288 245 101 287 261 243 113 312 273 280 288 281 295 279 305 287 44 39 332 296 297 330 320 337
291 289 151 245 253 227 200 258 244 240 237 231 240 242 242 263 254 282 250 77 169 250 7 321 243 259 237 236 178 241 270 239 263 275 265 275 278 39 197 245 352 357 359 355 322
275 267 175 214 273 285 302 230 206 211 280 270 278 275 245 246 206 252 245 142 226 323 38 309 273 273 288 319 319 271 232 251 267 270 283 279 298 302 320 314 347 351 346 323 308
244 28 10 277 169 304 296 300 243 206 221 222 232 244 233 240 236 219 229 149 196 130 236 252 270 280 285 291 290 287 283 279 271 267 270 292 295 305 314 356 323 294 329 303 310
309 338 4 285 278 270 202 239 250 256 279 228 239 261 240 258 250 247 244 236 235 162 231 237 262 281 279 276 272 271 271 271 269 269 273 278 284 325 0 330 332 332 316 303 313
18 267 267 293 242 245 253 231 238 279 254 281 328 312 238 310 325 337 316 306 285 282 258 255 278 280 276 287 280 276 265 261 255 262 280 279 325 349 347 336 330 317 308 314 321